Time,TemperatureF,DewpointF,PressureIn,WindDirection,WindDirectionDegrees,WindSpeedMPH,WindSpeedGustMPH,Humidity,HourlyPrecipIn,Conditions,Clouds,dailyrainin,SoftwareType,DateUTC
2013-01-07 00:27:00,31.9,26.0,30.13,NW,323,1.0,-999.0,80,-99.99,,,0.00,weatherlink.com 1.10,2013-01-07 05:27:00,
2013-01-07 00:43:00,31.9,26.0,30.12,SW,220,3.0,-999.0,79,-99.99,,,0.00,weatherlink.com 1.10,2013-01-07 05:43:00,
2013-01-07 00:58:00,31.8,27.0,30.12,NNW,339,1.0,-999.0,81,-99.99,,,0.00,weatherlink.com 1.10,2013-01-07 05:58:00,
2013-01-07 01:13:00,31.8,27.0,30.11,South,172,6.0,-999.0,81,-99.99,,,0.00,weatherlink.com 1.10,2013-01-07 06:13:00,
2013-01-07 01:28:00,31.3,26.0,30.12,WSW,253,0.0,-999.0,81,-99.99,,,0.00,weatherlink.com 1.10,2013-01-07 06:28:00,
2013-01-07 01:43:00,31.3,26.0,30.10,South,171,5.0,-999.0,79,-99.99,,,0.00,weatherlink.com 1.10,2013-01-07 06:43:00,
2013-01-07 01:58:00,31.2,26.0,30.13,NNW,347,3.0,-999.0,81,-99.99,,,0.00,weatherlink.com 1.10,2013-01-07 06:58:00,
2013-01-07 02:13:00,30.9,26.0,30.14,South,182,3.0,-999.0,82,-99.99,,,0.00,weatherlink.com 1.10,2013-01-07 07:13:00,
2013-01-07 02:28:00,30.6,26.0,30.16,SSW,198,0.0,-999.0,84,-99.99,,,0.00,weatherlink.com 1.10,2013-01-07 07:28:00,
2013-01-07 02:43:00,30.3,27.0,30.18,WSW,251,1.0,-999.0,86,-99.99,,,0.00,weatherlink.com 1.10,2013-01-07 07:43:00,
2013-01-07 02:58:00,29.8,26.0,30.18,South,191,5.0,-999.0,84,-99.99,,,0.00,weatherlink.com 1.10,2013-01-07 07:58:00,
2013-01-07 03:13:00,29.5,24.0,30.19,SE,124,2.0,-999.0,81,-99.99,,,0.00,weatherlink.com 1.10,2013-01-07 08:13:00,
2013-01-07 03:28:00,29.3,24.0,30.20,South,171,6.0,-999.0,80,-99.99,,,0.00,weatherlink.com 1.10,2013-01-07 08:28:00,
2013-01-07 03:43:00,28.8,23.0,30.21,South,174,0.0,-999.0,79,-99.99,,,0.00,weatherlink.com 1.10,2013-01-07 08:43:00,
2013-01-07 03:58:00,28.7,23.0,30.20,SSW,199,4.0,-999.0,80,-99.99,,,0.00,weatherlink.com 1.10,2013-01-07 08:58:00,
2013-01-07 04:13:00,28.4,23.0,30.21,SSW,195,3.0,-999.0,81,-99.99,,,0.00,weatherlink.com 1.10,2013-01-07 09:13:00,
2013-01-07 04:28:00,28.1,23.0,30.23,WSW,239,2.0,-999.0,81,-99.99,,,0.00,weatherlink.com 1.10,2013-01-07 09:28:00,
2013-01-07 04:43:00,27.9,23.0,30.23,South,176,4.0,-999.0,81,-99.99,,,0.00,weatherlink.com 1.10,2013-01-07 09:43:00,
2013-01-07 04:58:00,27.8,23.0,30.23,SW,226,3.0,-999.0,82,-99.99,,,0.00,weatherlink.com 1.10,2013-01-07 09:58:00,
2013-01-07 05:13:00,27.6,23.0,30.24,SSW,208,5.0,-999.0,82,-99.99,,,0.00,weatherlink.com 1.10,2013-01-07 10:13:00,
2013-01-07 05:28:00,27.5,23.0,30.24,SSW,203,2.0,-999.0,82,-99.99,,,0.00,weatherlink.com 1.10,2013-01-07 10:28:00,
2013-01-07 05:43:00,27.2,22.0,30.26,SW,224,0.0,-999.0,82,-99.99,,,0.00,weatherlink.com 1.10,2013-01-07 10:43:00,
2013-01-07 05:58:00,26.9,22.0,30.26,NNW,328,0.0,-999.0,83,-99.99,,,0.00,weatherlink.com 1.10,2013-01-07 10:58:00,
2013-01-07 06:13:00,26.4,22.0,30.28,North,1,0.0,-999.0,84,-99.99,,,0.00,weatherlink.com 1.10,2013-01-07 11:13:00,
2013-01-07 06:28:00,26.3,22.0,30.28,SW,222,6.0,-999.0,84,-99.99,,,0.00,weatherlink.com 1.10,2013-01-07 11:28:00,
2013-01-07 06:43:00,26.6,22.0,30.30,South,191,1.0,-999.0,83,-99.99,,,0.00,weatherlink.com 1.10,2013-01-07 11:43:00,
2013-01-07 06:58:00,26.4,22.0,30.30,SSW,205,3.0,-999.0,83,-99.99,,,0.00,weatherlink.com 1.10,2013-01-07 11:58:00,
2013-01-07 07:13:00,26.4,22.0,30.31,WSW,256,7.0,-999.0,83,-99.99,,,0.00,weatherlink.com 1.10,2013-01-07 12:13:00,
2013-01-07 07:28:00,26.3,22.0,30.32,SSW,205,6.0,-999.0,83,-99.99,,,0.00,weatherlink.com 1.10,2013-01-07 12:28:00,
2013-01-07 07:44:00,26.3,22.0,30.33,SSW,202,5.0,-999.0,82,-99.99,,,0.00,weatherlink.com 1.10,2013-01-07 12:44:00,
2013-01-07 07:59:00,26.3,22.0,30.33,SW,215,6.0,-999.0,82,-99.99,,,0.00,weatherlink.com 1.10,2013-01-07 12:59:00,
2013-01-07 08:14:00,26.4,22.0,30.34,SSW,210,2.0,-999.0,82,-99.99,,,0.00,weatherlink.com 1.10,2013-01-07 13:14:00,
2013-01-07 08:29:00,26.7,22.0,30.34,SSW,208,2.0,-999.0,81,-99.99,,,0.00,weatherlink.com 1.10,2013-01-07 13:29:00,
2013-01-07 08:44:00,27.5,22.0,30.34,SW,223,0.0,-999.0,80,-99.99,,,0.00,weatherlink.com 1.10,2013-01-07 13:44:00,
2013-01-07 08:59:00,28.8,22.0,30.34,SSW,198,3.0,-999.0,77,-99.99,,,0.00,weatherlink.com 1.10,2013-01-07 13:59:00,
2013-01-07 09:14:00,29.5,23.0,30.34,South,188,1.0,-999.0,76,-99.99,,,0.00,weatherlink.com 1.10,2013-01-07 14:14:00,
2013-01-07 09:29:00,31.8,23.0,30.34,SSW,210,3.0,-999.0,71,-99.99,,,0.00,weatherlink.com 1.10,2013-01-07 14:29:00,
2013-01-07 09:44:00,33.7,24.0,30.34,WSW,253,1.0,-999.0,67,-99.99,,,0.00,weatherlink.com 1.10,2013-01-07 14:44:00,
2013-01-07 09:59:00,35.5,24.0,30.34,South,185,0.0,-999.0,64,-99.99,,,0.00,weatherlink.com 1.10,2013-01-07 14:59:00,
2013-01-07 10:14:00,36.9,25.0,30.33,South,178,0.0,-999.0,63,-99.99,,,0.00,weatherlink.com 1.10,2013-01-07 15:14:00,
2013-01-07 10:29:00,38.2,26.0,30.33,NW,323,0.0,-999.0,62,-99.99,,,0.00,weatherlink.com 1.10,2013-01-07 15:29:00,
2013-01-07 10:44:00,39.2,25.0,30.32,NNW,328,0.0,-999.0,58,-99.99,,,0.00,weatherlink.com 1.10,2013-01-07 15:44:00,
2013-01-07 10:59:00,40.9,25.0,30.32,ENE,72,0.0,-999.0,54,-99.99,,,0.00,weatherlink.com 1.10,2013-01-07 15:59:00,
2013-01-07 11:14:00,41.6,26.0,30.32,ENE,65,1.0,-999.0,54,-99.99,,,0.00,weatherlink.com 1.10,2013-01-07 16:14:00,
2013-01-07 11:29:00,42.6,26.0,30.31,East,95,0.0,-999.0,52,-99.99,,,0.00,weatherlink.com 1.10,2013-01-07 16:29:00,
2013-01-07 11:44:00,42.9,28.0,30.30,East,92,2.0,-999.0,55,-99.99,,,0.00,weatherlink.com 1.10,2013-01-07 16:44:00,
2013-01-07 11:59:00,43.6,28.0,30.30,North,6,0.0,-999.0,55,-99.99,,,0.00,weatherlink.com 1.10,2013-01-07 16:59:00,
2013-01-07 12:14:00,43.9,28.0,30.29,North,10,1.0,-999.0,54,-99.99,,,0.00,weatherlink.com 1.10,2013-01-07 17:14:00,
2013-01-07 12:29:00,44.8,29.0,30.28,North,0,3.0,-999.0,54,-99.99,,,0.00,weatherlink.com 1.10,2013-01-07 17:29:00,
2013-01-07 12:45:00,45.7,29.0,30.28,North,11,0.0,-999.0,52,-99.99,,,0.00,weatherlink.com 1.10,2013-01-07 17:45:00,
2013-01-07 13:00:00,45.7,28.0,30.27,NNW,332,2.0,-999.0,50,-99.99,,,0.00,weatherlink.com 1.10,2013-01-07 18:00:00,
2013-01-07 13:15:00,45.5,29.0,30.26,NNE,13,0.0,-999.0,53,-99.99,,,0.00,weatherlink.com 1.10,2013-01-07 18:15:00,
2013-01-07 13:30:00,45.7,28.0,30.27,North,4,0.0,-999.0,50,-99.99,,,0.00,weatherlink.com 1.10,2013-01-07 18:30:00,
2013-01-07 13:45:00,45.7,27.0,30.27,ENE,58,1.0,-999.0,48,-99.99,,,0.00,weatherlink.com 1.10,2013-01-07 18:45:00,
2013-01-07 14:00:00,44.3,26.0,30.27,East,86,2.0,-999.0,48,-99.99,,,0.00,weatherlink.com 1.10,2013-01-07 19:00:00,
2013-01-07 14:15:00,43.1,24.0,30.28,NNE,27,0.0,-999.0,47,-99.99,,,0.00,weatherlink.com 1.10,2013-01-07 19:15:00,
2013-01-07 14:30:00,42.1,24.0,30.29,NE,48,0.0,-999.0,48,-99.99,,,0.00,weatherlink.com 1.10,2013-01-07 19:30:00,
2013-01-07 14:45:00,42.6,23.0,30.29,East,96,0.0,-999.0,47,-99.99,,,0.00,weatherlink.com 1.10,2013-01-07 19:45:00,
2013-01-07 15:00:00,42.2,25.0,30.29,ENE,65,0.0,-999.0,50,-99.99,,,0.00,weatherlink.com 1.10,2013-01-07 20:00:00,
2013-01-07 15:15:00,41.8,23.0,30.30,East,85,0.0,-999.0,48,-99.99,,,0.00,weatherlink.com 1.10,2013-01-07 20:15:00,
2013-01-07 15:30:00,42.1,23.0,30.31,East,85,0.0,-999.0,47,-99.99,,,0.00,weatherlink.com 1.10,2013-01-07 20:30:00,
2013-01-07 16:00:00,41.1,23.0,30.32,East,96,0.0,-999.0,49,-99.99,,,0.00,weatherlink.com 1.10,2013-01-07 21:00:00,
2013-01-07 16:15:00,40.3,23.0,30.33,East,96,0.0,-999.0,50,-99.99,,,0.00,weatherlink.com 1.10,2013-01-07 21:15:00,
2013-01-07 16:30:00,40.1,23.0,30.33,East,97,0.0,-999.0,51,-99.99,,,0.00,weatherlink.com 1.10,2013-01-07 21:30:00,
2013-01-07 16:45:00,39.2,23.0,30.33,East,97,0.0,-999.0,53,-99.99,,,0.00,weatherlink.com 1.10,2013-01-07 21:45:00,
2013-01-07 17:00:00,38.0,24.0,30.34,East,97,0.0,-999.0,57,-99.99,,,0.00,weatherlink.com 1.10,2013-01-07 22:00:00,
2013-01-07 17:15:00,36.6,23.0,30.35,East,97,0.0,-999.0,59,-99.99,,,0.00,weatherlink.com 1.10,2013-01-07 22:15:00,
2013-01-07 17:30:00,35.6,23.0,30.36,East,97,0.0,-999.0,61,-99.99,,,0.00,weatherlink.com 1.10,2013-01-07 22:30:00,
2013-01-07 17:45:00,34.4,23.0,30.38,East,97,0.0,-999.0,64,-99.99,,,0.00,weatherlink.com 1.10,2013-01-07 22:45:00,
2013-01-07 18:00:00,33.5,23.0,30.39,East,97,0.0,-999.0,66,-99.99,,,0.00,weatherlink.com 1.10,2013-01-07 23:00:00,
2013-01-07 18:15:00,33.2,23.0,30.40,SE,136,1.0,-999.0,67,-99.99,,,0.00,weatherlink.com 1.10,2013-01-07 23:15:00,
2013-01-07 18:30:00,32.7,24.0,30.40,SE,137,0.0,-999.0,69,-99.99,,,0.00,weatherlink.com 1.10,2013-01-07 23:30:00,
2013-01-07 18:45:00,32.2,23.0,30.40,SE,137,0.0,-999.0,70,-99.99,,,0.00,weatherlink.com 1.10,2013-01-07 23:45:00,
2013-01-07 19:00:00,31.5,23.0,30.40,SE,137,0.0,-999.0,72,-99.99,,,0.00,weatherlink.com 1.10,2013-01-08 00:00:00,
2013-01-07 19:15:00,31.0,23.0,30.41,SE,137,0.0,-999.0,73,-99.99,,,0.00,weatherlink.com 1.10,2013-01-08 00:15:00,
2013-01-07 19:30:00,31.2,23.0,30.41,SE,137,0.0,-999.0,73,-99.99,,,0.00,weatherlink.com 1.10,2013-01-08 00:30:00,
2013-01-07 19:45:00,30.7,23.0,30.41,SE,136,0.0,-999.0,73,-99.99,,,0.00,weatherlink.com 1.10,2013-01-08 00:45:00,
2013-01-07 20:00:00,30.3,23.0,30.41,SE,137,0.0,-999.0,74,-99.99,,,0.00,weatherlink.com 1.10,2013-01-08 01:00:00,
2013-01-07 20:15:00,29.5,23.0,30.41,SE,137,0.0,-999.0,76,-99.99,,,0.00,weatherlink.com 1.10,2013-01-08 01:15:00,
2013-01-07 20:30:00,29.4,23.0,30.39,SE,137,0.0,-999.0,77,-99.99,,,0.00,weatherlink.com 1.10,2013-01-08 01:30:00,
2013-01-07 20:45:00,29.3,23.0,30.40,SE,137,0.0,-999.0,77,-99.99,,,0.00,weatherlink.com 1.10,2013-01-08 01:45:00,
2013-01-07 21:00:00,29.1,23.0,30.40,SE,138,0.0,-999.0,77,-99.99,,,0.00,weatherlink.com 1.10,2013-01-08 02:00:00,
2013-01-07 21:15:00,28.7,23.0,30.39,SE,138,0.0,-999.0,79,-99.99,,,0.00,weatherlink.com 1.10,2013-01-08 02:15:00,
2013-01-07 21:30:00,28.2,22.0,30.36,SE,138,0.0,-999.0,79,-99.99,,,0.00,weatherlink.com 1.10,2013-01-08 02:30:00,
2013-01-07 21:45:00,27.9,23.0,30.36,SE,138,0.0,-999.0,80,-99.99,,,0.00,weatherlink.com 1.10,2013-01-08 02:45:00,
2013-01-07 22:00:00,27.6,23.0,30.36,SE,138,0.0,-999.0,81,-99.99,,,0.00,weatherlink.com 1.10,2013-01-08 03:00:00,
2013-01-07 22:15:00,27.8,23.0,30.36,SE,138,0.0,-999.0,81,-99.99,,,0.00,weatherlink.com 1.10,2013-01-08 03:15:00,
2013-01-07 22:30:00,27.9,23.0,30.34,SSE,152,0.0,-999.0,81,-99.99,,,0.00,weatherlink.com 1.10,2013-01-08 03:30:00,
2013-01-07 22:45:00,27.9,23.0,30.35,SSE,152,0.0,-999.0,81,-99.99,,,0.00,weatherlink.com 1.10,2013-01-08 03:45:00,
2013-01-07 23:00:00,28.2,23.0,30.35,SSE,157,0.0,-999.0,81,-99.99,,,0.00,weatherlink.com 1.10,2013-01-08 04:00:00,
2013-01-07 23:15:00,28.7,23.0,30.34,SSE,157,0.0,-999.0,80,-99.99,,,0.00,weatherlink.com 1.10,2013-01-08 04:15:00,
2013-01-07 23:30:00,29.1,23.0,30.33,NNW,335,0.0,-999.0,78,-99.99,,,0.00,weatherlink.com 1.10,2013-01-08 04:30:00,
2013-01-07 23:45:00,29.3,24.0,30.34,NW,315,0.0,-999.0,79,-99.99,,,0.00,weatherlink.com 1.10,2013-01-08 04:45:00,